Location: Kerb�bon
(47.7970°N, 3.3487°W)
Time: 13:04:29
(UTC+00:00)

Cosmos 1503 Rocket - Pass Details

Date: 12 May 2021
Orbit: 752 x 791 km, 74.0° (Epoch: 18 June)

Event Time Altitude Azimuth Distance (km) Brightness Sun altitude
Rises 20:06:34 0° 190° (S) 3,189 7.0 -4.5°
Reaches altitude 10° 20:08:56 10° 187° (S) 2,271 6.2 -4.8°
Maximum altitude 20:13:59 61° 108° (ESE) 857 4.0 -5.5°
Drops below altitude 10° 20:19:08 10° 29° (NNE) 2,306 6.6 -6.2°
Sets 20:21:33 0° 26° (NNE) 3,242 7.4 -6.5°
